FW0042 Weather Reports


time (UTC)temp
C
wind
direction
speed
KPH
gust
KPH
rain 1hr
cm
rain 24hr
cm
rain mn
cm
humidity
%
barometer
mb
20260507134502 10 103 0.0 1.6 0.00 0.00 0.00 49 1016.7
20260507133105 10 96 0.0 1.6 0.00 0.00 0.00 52 1016.8
20260507131603 10 86 0.0 0.0 0.00 0.00 0.00 49 1016.9
20260507130058 10 103 0.0 3.2 0.00 0.00 0.00 50 1017.0
20260507124559 10 135 0.0 3.2 0.00 0.00 0.00 50 1017.1
20260507123057 10 128 0.0 3.2 0.00 0.00 0.00 52 1017.0
20260507121553 10 72 0.0 1.6 0.00 0.00 0.00 51 1017.2
20260507120052 10 126 0.0 4.8 0.00 0.00 0.00 52 1017.3
20260507114549 10 121 0.0 3.2 0.00 0.00 0.00 51 1017.3
20260507113048 10 140 0.0 3.2 0.00 0.00 0.00 54 1017.2
20260507111547 9 144 0.0 3.2 0.00 0.00 0.00 54 1017.3
20260507110050 9 156 0.0 9.7 0.00 0.00 0.00 54 1017.3
20260507104543 10 121 0.0 1.6 0.00 0.00 0.00 53 1017.2
20260507103042 10 5 0.0 0.0 0.00 0.00 0.00 59 1017.2
20260507101557 11 5 0.0 0.0 0.00 0.00 0.00 58 1017.2
20260507100040 11 5 0.0 0.0 0.00 0.00 0.00 57 1017.2
20260507094543 12 5 0.0 0.0 0.00 0.00 0.00 60 1017.2
20260507093037 12 15 0.0 0.0 0.00 0.00 0.00 56 1017.3
20260507091551 13 17 0.0 0.0 0.00 0.00 0.00 60 1017.3
20260507090035 12 24 0.0 0.0 0.00 0.00 0.00 66 1017.4
20260507084531 13 350 0.0 1.6 0.00 0.00 0.00 58 1017.4
20260507083030 12 355 0.0 0.0 0.00 0.00 0.00 58 1017.4
20260507081534 12 19 0.0 0.0 0.00 0.00 0.00 64 1017.2
20260507080021 11 340 0.0 0.0 0.00 0.00 0.00 64 1017.2
20260507074517 10 333 0.0 0.0 0.00 0.00 0.00 70 1017.2
20260507073012 9 346 0.0 0.0 0.00 0.00 0.00 75 1017.1
20260507071509 8 355 0.0 0.0 0.00 0.00 0.00 85 1017.2
20260507070007 7 11 0.0 0.0 0.00 0.00 0.00 89 1017.2
20260507064600 6 11 0.0 0.0 0.00 0.00 0.00 94 1017.2
20260507063100 5 15 0.0 0.0 0.00 0.00 0.00 95 1017.2
20260507061551 4 15 0.0 0.0 0.00 0.00 0.00 96 1017.1
20260507060046 -17 0.0 0.0 0.00 0.00 0.00 1017.1
20260507054546 -17 0.0 0.0 0.00 0.00 0.00 1017.1
20260507053042 -17 0.0 0.0 0.00 0.00 0.00 1017.0
20260507051533 -17 0.0 0.0 0.00 0.00 0.00 1016.9
20260507050033 -17 0.0 0.0 0.00 0.00 0.00 1016.8
20260507044539 -17 0.0 0.0 0.00 0.00 0.00 1016.7
20260507043019 -17 0.0 0.0 0.00 0.00 0.00 1016.7
20260507041516 -17 0.0 0.0 0.00 0.00 0.00 1016.6
20260507040011 -17 0.0 0.0 0.00 0.00 0.00 1016.6
20260507034507 -17 0.0 0.0 0.00 0.00 0.00 1016.6
20260507033007 -17 0.0 0.0 0.00 0.00 0.00 1016.5
20260507031558 -17 0.0 0.0 0.00 0.00 0.00 1016.5
20260507030105 -17 0.0 0.0 0.00 0.00 0.00 1016.4
20260507024550 -17 0.0 0.0 0.00 0.00 0.00 1016.3
20260507023045 -17 0.0 0.0 0.00 0.00 0.00 1016.3
20260507021543 2 322 0.0 0.0 0.00 0.00 0.00 94 1016.2
20260507020046 2 327 0.0 0.0 0.00 0.00 0.00 94 1016.0
20260507014641 2 324 0.0 0.0 0.00 0.00 0.00 94 1016.0
20260507013039 2 315 0.0 0.0 0.00 0.00 0.00 94 1016.0
20260507011539 2 337 0.0 0.0 0.00 0.00 0.00 94 1015.9
20260507010037 2 313 0.0 0.0 0.00 0.00 0.00 94 1015.8
20260507004540 2 306 0.0 0.0 0.00 0.00 0.00 94 1015.8
20260507003034 2 342 0.0 0.0 0.00 0.00 0.00 94 1015.8
20260507001535 2 355 0.0 0.0 0.00 0.00 0.00 94 1015.8
20260507000033 2 344 0.0 0.0 0.00 0.00 0.00 95 1015.8
20260506234533 2 317 0.0 0.0 0.00 0.03 0.00 94 1015.7
20260506233031 2 342 0.0 0.0 0.00 0.03 0.00 94 1015.7
20260506231529 2 346 0.0 0.0 0.00 0.03 0.00 94 1015.6
20260506230028 2 302 0.0 1.6 0.00 0.03 0.00 94 1015.5
20260506224528 2 302 0.0 0.0 0.00 0.03 0.00 94 1015.3
20260506223026 2 302 0.0 0.0 0.00 0.03 0.00 94 1015.3
20260506220028 2 302 0.0 0.0 0.00 0.03 0.00 94 1015.2
20260506214521 2 302 0.0 0.0 0.00 0.03 0.03 94 1015.2
20260506213020 2 302 0.0 0.0 0.00 0.03 0.03 93 1015.2
20260506211518 2 302 0.0 1.6 0.00 0.03 0.03 93 1015.3
20260506210020 2 315 0.0 0.0 0.00 0.03 0.03 93 1015.2
20260506204523 3 320 0.0 0.0 0.00 0.03 0.03 94 1015.1
20260506203015 3 320 0.0 0.0 0.00 0.03 0.03 93 1015.0
20260506201519 3 320 0.0 0.0 0.00 0.03 0.03 93 1015.1
20260506200024 3 320 0.0 0.0 0.00 0.03 0.03 93 1015.1
20260506194515 3 320 0.0 0.0 0.00 0.03 0.03 93 1015.0
20260506193016 3 320 0.0 0.0 0.00 0.03 0.03 93 1014.9
20260506191514 3 319 0.0 0.0 0.00 0.03 0.03 92 1014.8
20260506190013 3 319 0.0 0.0 0.00 0.03 0.03 92 1014.7
20260506184513 3 319 0.0 0.0 0.00 0.03 0.03 92 1014.6
20260506183011 3 319 0.0 0.0 0.00 0.03 0.03 91 1014.6
20260506181511 4 320 0.0 0.0 0.00 0.03 0.03 90 1014.6
20260506180011 5 320 0.0 0.0 0.00 0.03 0.03 91 1014.5
20260506174512 5 320 0.0 0.0 0.00 0.03 0.03 91 1014.5
20260506173010 5 320 0.0 0.0 0.00 0.03 0.03 91 1014.5
20260506171509 5 319 0.0 0.0 0.00 0.03 0.03 91 1014.4
20260506170009 5 350 0.0 0.0 0.00 0.03 0.03 91 1014.5
20260506164509 4 337 0.0 0.0 0.00 0.03 0.03 91 1014.4
20260506163012 4 236 0.0 0.0 0.00 0.03 0.03 91 1014.4
20260506161508 3 198 0.0 0.0 0.00 0.03 0.03 90 1014.3
20260506160012 3 198 0.0 0.0 0.00 0.03 0.03 90 1014.5
20260506154508 3 197 0.0 0.0 0.00 0.03 0.03 91 1014.6
20260506153006 3 197 0.0 0.0 0.00 0.03 0.03 90 1014.7
20260506151506 3 197 0.0 0.0 0.00 0.03 0.03 91 1014.8
20260506150007 3 170 0.0 0.0 0.00 0.03 0.03 90 1014.8
20260506144605 3 135 0.0 1.6 0.00 0.03 0.03 90 1014.8
20260506143013 3 123 0.0 0.0 0.00 0.03 0.03 89 1014.9
20260506141504 4 160 0.0 3.2 0.00 0.03 0.03 87 1015.1
20260506140003 4 165 0.0 0.0 0.00 0.03 0.03 87 1014.6